Location: Azul
(36.7830°S, 59.8500°W)
Time: 08:21:08
(UTC-03:00)

ISS - Pass Details

Date: 10 April 2020
Orbit: 417 x 419 km, 51.6° (Epoch: 31 May)

Event Time Altitude Azimuth Distance (km) Brightness Sun altitude
Exits shadow 05:10:45 14° 156° (SSE) 1,316 -0.9 -26.8°
Drops below altitude 10° 05:12:33 10° 124° (SE) 1,531 -0.1 -26.4°
Sets 05:15:29 0° 97° (E) 2,393 1.4 -25.9°
